Regional Weather Roundup
Issued by NWS

Home | Current Version | Previous Version | Graphics & Text | Print | Product List | Glossary On
Versions: 1 2 3 4 5 6 7 8 9 10 11 12 13 14 15 16 17 18 19 20 21 22 23 24 25 26 27 28 29 30 31 32 33 34 35 36 37 38 39 40 41 42 43 44 45 46 47 48 49 50
000
ASUS43 KLMK 161202
RWRKY
KENTUCKY REGIONAL WEATHER ROUNDUP
NATIONAL WEATHER SERVICE LOUISVILLE KY
800 AM EDT WED APR 16 2014

NOTE "FAIR" INDICATES FEW OR NO CLOUDS BELOW 12,000 FEET
WITH NO SIGNIFICANT WEATHER AND/OR OBSTRUCTIONS TO VISIBILITY.

KYZ001>023-026-027-061>063-070>075-161300-
WESTERN AND SOUTH CENTRAL KENTUCKY

CITY           SKY/WX    TMP DP  RH WIND       PRES   REMARKS
PADUCAH        CLEAR     34  26  72 SE6       30.30R WCI  29
HENDERSON      CLEAR     34  21  60 E5        30.33R WCI  30
OWENSBORO      CLEAR     32  23  69 SE7       30.35R WCI  26
HOPKINSVILLE   CLEAR     32  23  69 E8        30.31R WCI  25
BOWLING GREEN  PTCLDY    31  23  72 E7        30.33F WCI  24
GLASGOW        NOT AVBL
$$

KYZ024-025-028>034-038-045-046-053-161300-
NORTH CENTRAL KENTUCKY

CITY           SKY/WX    TMP DP  RH WIND       PRES   REMARKS
LOUISVILLE/SDF PTCLDY    33  20  58 E8        30.38R WCI  26
LOUISVILLE/LOU CLEAR     34  19  54 E7        30.39R WCI  28
FORT KNOX      PTCLDY    30  21  68 E7        30.35R WCI  23
$$

KYZ035>037-039>044-047>052-055>060-089>105-161300-
NORTHEAST KENTUCKY

CITY           SKY/WX    TMP DP  RH WIND       PRES   REMARKS
LEXINGTON      SUNNY     31  19  61 E8        30.38R WCI  23
COVINGTON      PTSUNNY   30  18  60 E8        30.38R WCI  22
FRANKFORT      SUNNY     28  22  78 E6        30.37R WCI  22
$$

KYZ054-064>069-076>088-106>120-161300-
SOUTHEAST KENTUCKY

CITY           SKY/WX    TMP DP  RH WIND       PRES   REMARKS
JACKSON        SUNNY     29  18  63 NE3       30.35S
LONDON         SUNNY     31  20  63 E6        30.34R WCI  25
SOMERSET       NOT AVBL
MIDDLESBORO    NOT AVBL
MONTICELLO     SUNNY     38  31  76 NE7       30.37R WCI  33
$$




USA.gov is the U.S. government's official web portal to all federal, state and local government web resources and services.